Location: Gdynia
(54.5193°N, 18.5395°E)
Time: 10:28:02
(UTC+02:00)

ISS - Pass Details

Date: 24 January 2019
Orbit: 411 x 421 km, 51.6° (Epoch: 18 October)

Event Time Altitude Azimuth Distance (km) Brightness Sun altitude
Rises 17:36:37 0° 201° (SSW) 2,407 0.7 -12.5°
Reaches altitude 10° 17:39:33 10° 174° (S) 1,546 -0.8 -12.9°
Maximum altitude 17:41:20 14° 143° (SE) 1,348 -1.4 -13.2°
Enters shadow 17:42:16 12° 125° (SE) 1,407 -1.5 -13.3°
